Regional Weather Roundup
Issued by NWS

Home | Current Version | Previous Version | Graphics & Text | Print | Product List | Glossary On
Versions: 1 2 3 4 5 6 7 8 9 10 11 12 13 14 15 16 17 18 19 20 21 22 23 24 25 26 27 28 29 30 31 32 33 34 35 36 37 38 39 40 41 42 43 44 45 46 47 48 49 50
011
ASUS43 KMPX 242101
RWRMN
WEATHER ROUNDUP FOR MINNESOTA
NATIONAL WEATHER SERVICE TWIN CITIES/CHANHASSEN MN
400 PM CDT SAT JUN 24 2017


NOTE: "FAIR" INDICATES FEW OR NO CLOUDS BELOW 12,000 FEET WITH NO
SIGNIFICANT WEATHER AND/OR OBSTRUCTIONS TO VISIBILITY. N/A MEANS
CURRENT SKY AND/OR WEATHER CONDITIONS ARE NOT AVAILABLE.

MNZ060>063-068>070-242200-
   Twin Cities Metro

CITY           SKY/WX    TMP DP  RH WIND       PRES   REMARKS
TWIN CITIES    CLOUDY    62  44  51 NW16      30.02F
ST PAUL        CLOUDY    60  48  64 W10       30.03F
CRYSTAL        PTSUNNY   60  43  53 NW12      30.01F
BLAINE         MOSUNNY   63  46  55 W12G17    30.01F
LAKEVILLE      CLOUDY    57  48  72 W9G20     30.03F
EDEN PRAIRIE   CLOUDY    63  46  54 W12G20    30.02F
SOUTH ST PAUL  CLOUDY    60  45  58 NW12G17   30.02F
LAKE ELMO      PTSUNNY   54  48  82 NW5       30.04S
$$
MNZ001>005-007-008-013>017-022>024-027-028-242200-
   Northwest Minnesota

CITY           SKY/WX    TMP DP  RH WIND       PRES   REMARKS
BEMIDJI        CLOUDY    60  45  59 W16       30.01S
HALLOCK        CLOUDY    52  52 100 NW23G32   30.05R FOG
ROSEAU         CLOUDY    59  52  77 N6        30.00R
WARROAD        CLOUDY    57  54  88 W6        30.00S
CROOKSTON      CLOUDY    52  52 100 NW22G28   30.06R
FOSSTON        PTSUNNY   55  54  94 W10       30.03F
DETROIT LAKES  PTSUNNY   55  50  82 NW18      30.07S
MOORHEAD       PTSUNNY   57  52  82 NW15      30.09R
PARK RAPIDS    MOSUNNY   63  42  46 NW17G26   30.01S
MAHNOMEN       CLOUDY    56  51  83 NW14      30.04S
$$
MNZ006-009>011-018-025>026-242200-
   North Central Minnesota

CITY           SKY/WX    TMP DP  RH WIND       PRES   REMARKS
BAUDETTE       CLOUDY    59  50  72 NW12      29.98R
FLAG ISLAND    CLOUDY    59  48  67 N5        29.97S
INTL FALLS     CLOUDY    62  47  57 VRB7      29.94R
WASKISH        CLOUDY    61  48  63 W10       29.98S
BIG FORK       MOSUNNY   64  48  55 W6        29.96S
LONGVILLE      MOSUNNY   61  45  55 NW10G18   30.00R
GRAND RAPIDS   PTSUNNY   61  47  59 NW12      29.99R
CRANE LAKE     CLOUDY    59  46  63 N6        29.95S
ORR            CLOUDY    59  45  58 NW6       29.92S
COOK           CLOUDY    59  48  67 W5        29.95S
WALKER         CLOUDY    62  45  53 NW12G20   30.00S
$$
MNZ012-019>021-037-242200-
   Northeast Minnesota

CITY           SKY/WX    TMP DP  RH WIND       PRES   REMARKS
DULUTH         PTSUNNY   60  45  57 NW12G21   29.95S
ELY            CLOUDY    61  45  55 NW8G17    29.92S
HIBBING        PTSUNNY   58  47  66 W7        29.96S
EVELETH        CLOUDY    58  48  71 NW9       29.97S
DULUTH HARBOR  CLOUDY    64  46  52 W13G21    29.95R
TWO HARBORS    CLOUDY    64  52  63 W6        29.92R
SILVER BAY     CLOUDY    64  48  55 N6        29.89S
GRAND MARAIS     N/A     48  48 100 W5        29.89R
G MARAIS ARPRT LGT RAIN  52  46  82 CALM      29.91S
$$
MNZ029>031-032-039>041-046>048-054>057-064-242200-
   West Central Minnesota

CITY           SKY/WX    TMP DP  RH WIND       PRES   REMARKS
FERGUS FALLS   CLOUDY    57  45  62 NW21      30.06R
WHEATON        PTSUNNY   63  39  42 W18G24    30.11R
MORRIS         MOSUNNY   64  45  48 NW17      30.07S
ALEXANDRIA     PTSUNNY   62  46  55 W14G25    30.07S
ELBOW LAKE     CLOUDY    60  47  62 NW16      30.08S
WADENA         MOSUNNY   61  46  59 W12G24    30.03S
GLENWOOD       MOSUNNY   59  45  58 NW22G31   30.08R
APPLETON       MOSUNNY   64  37  36 NW20      30.08R
BENSON         PTSUNNY   64  46  52 N13       30.09F
ORTONVILLE     PTSUNNY   64  39  39 NW18G25   30.09S
MADISON        PTSUNNY   66  45  45 NW18G28   30.10R
WILLMAR        FAIR      64  45  48 NW22G28   30.08R
$$
MNZ033>034-036-042>043-049>051-058-059-242200-
   Central Minnesota

CITY           SKY/WX    TMP DP  RH WIND       PRES   REMARKS
ST CLOUD       PTSUNNY   64  45  49 NW12G18   30.01F
SAUK CENTRE    CLOUDY    57  46  65 W15G28    30.06R
PAYNESVILLE    LGT RAIN  54  49  83 NW9       30.07R
AITKIN         MOSUNNY   63  45  51 W7        29.97R
PINE RIVER     PTSUNNY   57  46  67 W12G17    30.05R
BRAINERD       MOSUNNY   60  44  55 NW14      30.01R
STAPLES        PTSUNNY   57  48  72 NW10      30.03S
LONG PRAIRIE   CLOUDY    57  43  58 W16G24    30.05R
LITTLE FALLS   MOSUNNY   59  45  58 W16G22    30.03R
LITCHFIELD     MOSUNNY   64  48  55 NW13G18   30.05S
BUFFALO        MOSUNNY   62  44  51 W14G25    30.04S
MAPLE LAKE     MOSUNNY   64  47  54 NW15      30.04S
HUTCHINSON     MOSUNNY   61  47  59 NW15G22   30.07R
$$
MNZ037-044-045-052-053-242200-
   East Central Minnesota

CITY           SKY/WX    TMP DP  RH WIND       PRES   REMARKS
PRINCETON      CLOUDY    63  45  51 NW9       30.01R
MORA           MOSUNNY   63  43  48 NW13G18   30.00S
CAMBRIDGE      MOSUNNY   66  46  48 W16G24    29.98S
RUSH CITY      RAIN      63  43  48 NW6       29.99S
MOOSE LAKE     PTSUNNY   61  48  63 N7        29.96S
HINCKLEY       FAIR      61  45  55 W8        29.98S
CLOQUET        LGT RAIN  57  45  62 W17G26    29.97R
MCGREGOR       CLOUDY    55  50  82 CALM      29.99S
$$
MNZ071>073-080-081-089-090-097-098-242200-
   Southwest Minnesota

CITY           SKY/WX    TMP DP  RH WIND       PRES   REMARKS
MONTEVIDEO     MOSUNNY   66  43  42 N18G29    30.08S
GRANITE FALLS  MOSUNNY   67  40  36 W20G30    30.10R
CANBY          CLOUDY    65  41  41 W15G21    30.12S
MARSHALL       PTSUNNY   65  41  41 N23G29    30.09S
REDWOOD FALLS  MOSUNNY   65  40  39 NW15G25   30.07R
OLIVIA         PTSUNNY   64  41  42 NW20G29   30.06S
PIPESTONE      MOSUNNY   64  39  39 NW18G24   30.13R
WINDOM         MOSUNNY   64  37  36 W23G30    30.10R
WORTHINGTON    CLOUDY    64  42  44 NW24G31   30.12R
JACKSON        MOSUNNY   66  39  37 W23G35    30.10R
TRACY          MOSUNNY   65  41  41 NW17      30.11R
SLAYTON        MOSUNNY   64  17  16 NW21G35   30.12R HAZE
$$
MNZ065>067-074>077-082>085-091>093-242200-
   South Central Minnesota

CITY           SKY/WX    TMP DP  RH WIND       PRES   REMARKS
MANKATO        PTSUNNY   66  42  41 NW23G29   30.04S
NEW ULM        SUNNY     66  37  34 NW22G35   30.06R
ST JAMES       MOSUNNY   66  41  39 W20G30    30.08R
FAIRMONT       PTSUNNY   67  45  45 NW21G33   30.07R
GLENCOE        PTSUNNY   61  52  72 W9G16     30.05R
FARIBAULT      CLOUDY    59  48  67 NW15      30.04F
OWATONNA       LGT RAIN  57  50  77 N15G23    30.05R
WASECA         CLOUDY    63  45  51 W17G26    30.05S
ALBERT LEA     LGT RAIN  61  52  72 NW6       30.05R
$$
MNZ078>079-086>088-094>096-242200-
   Southeast Minnesota

CITY           SKY/WX    TMP DP  RH WIND       PRES   REMARKS
ROCHESTER      MOSUNNY   61  49  64 S10       30.03F
RED WING       CLOUDY    61  39  44 W18G28    30.02R
STANTON        CLOUDY    56  48  74 NW10G17   30.03F
DODGE CENTER   PTSUNNY   61  46  59 W7        30.02F
WINONA         CLOUDY    63  43  48 W7        30.01F
AUSTIN         LGT RAIN  59  52  77 NW6       30.04R
PRESTON        PTSUNNY   56  51  84 W5        30.04F
$$
ABBREVIATIONS USED IN REMARKS
   TC - TEMPERATURES IN CELSIUS
  WCI - WIND CHILL INDEX
   HX - HEAT INDEX
  VSB - VISIBILITY
$$




USA.gov is the U.S. government's official web portal to all federal, state and local government web resources and services.